www.pogodaiklimat.ru

Погода и климат >> Архив погоды >> Япония >> Хатидзёдзима


ПОГОДА на Хатидзёдзиме

  • Прогноз погоды на Хатидзёдзиме
  • Монитор погоды на Хатидзёдзиме

АРХИВ ПОГОДЫ на Хатидзёдзиме

Время (UTC), дата Ветер
(напр.,м/с)
 
Видим.   Явления Облачность Т
(С)
Тd
(С)
f
(%)
Тe
(С)
Тes
(С)
Комфортность P
(гПа)
Po
(гПа)
Тmin
(С)
Tmax
(С)
R
(мм)
R24
(мм)
S
(см)
01 10.06 СВ 7 12 км н/о +21.9 +21.9 100 +29 +29 очень
душно
999.1 981.8
02 10.06 В 8 20 км н/о +23.2 +22.5 96 +32 +32 очень
душно
998.6 981.4
03 10.06 С 3 20 км н/о +24.6 +23.6 94 +33 +33 очень
душно
998.1 981.0
04 10.06 Ю 2 20 км н/о +25.2 +22.7 86 +33 +33 очень
душно
997.7 980.6
05 10.06 ЮЗ 3 15 км н/о +23.8 +22.6 93 +31 +31 очень
душно
998.0 980.8
06 10.06 СВ 3 14 км слаб. дождь н/о +23.6 +23.3 98 +32 +32 очень
душно
997.3 980.1 0.0
07 10.06 С 3 11 км в посл. час дождь н/о +23.5 +23.2 98 +31 +31 очень
душно
997.3 980.1
08 10.06 СВ 2 14 км н/о +23.7 +23.0 96 +31 +31 очень
душно
997.5 980.3
09 10.06 ЮЗ 2 10 км {дождь} н/о +23.2 +22.7 97 +32 +32 очень
душно
997.5 980.3
10 10.06 ЮЗ 3 9000 м слаб. дождь н/о +22.7 +22.7 100 +31 +31 очень
душно
997.7 980.5
11 10.06 ЮЗ 2 11 км в посл. час дождь н/о +22.5 +22.5 100 +30 +30 очень
душно
998.1 980.8
12 10.06 С 9 5000 м дождь н/о +19.8 +19.5 98 +22 +22 комфорт 999.3 981.8 +26.0 1
13 10.06 С 10 11 км в посл. час дождь н/о +19.0 +18.8 99 +20 +20 1000.4 982.9
14 10.06 СВ 10 11 км н/о +18.8 +18.5 98 +19 +19 1001.2 983.6
15 10.06 СВ 10 14 км {дождь} н/о +18.6 +17.6 94 +19 +19 1001.2 983.6
16 10.06 СВ 9 12 км н/о +18.9 +17.6 92 +19 +19 1001.7 984.1
17 10.06 СВ 8 15 км н/о +18.9 +17.1 89 +19 +19 1002.2 984.6
18 10.06 СВ 9 16 км {дождь} н/о +19.0 +16.6 86 +20 +20 1002.8 985.2 0.0
19 10.06 СВ 8 19 км н/о +19.1 +16.5 85 +20 +20 1003.4 985.8
20 10.06 СВ 7 18 км н/о +19.0 +16.4 85 +20 +20 1004.2 986.6
21 10.06 СВ 7 20 км н/о +19.1 +16.5 85 +20 +20 1004.6 987.0
22 10.06 СВ 6 17 км н/о +19.2 +17.0 87 +21 +21 комфорт 1005.4 987.8
23 10.06 СВ 6 20 км н/о +20.3 +17.1 82 +23 +23 комфорт 1005.8 988.3
00 11.06 СВ 5 20 км н/о +20.8 +16.8 78 +24 +24 комфорт 1006.0 988.5 +18.5 0.0
01 11.06 СВ 6 20 км н/о +21.1 +16.9 77 +25 +25 комфорт 1005.9 988.4
02 11.06 СВ 6 20 км н/о +21.0 +17.2 79 +25 +25 комфорт 1005.8 988.3
03 11.06 СВ 5 20 км н/о +20.4 +16.5 78 +23 +23 комфорт 1006.1 988.6
04 11.06 СВ 5 20 км н/о +20.2 +16.7 80 +23 +23 комфорт 1006.3 988.7
05 11.06 СВ 5 20 км н/о +19.8 +16.5 81 +22 +22 комфорт 1006.3 988.7
06 11.06 СВ 5 20 км н/о +21.2 +16.6 75 +25 +25 комфорт 1006.0 988.5
07 11.06 СВ 7 20 км н/о +21.1 +16.7 76 +25 +25 комфорт 1005.6 988.1
08 11.06 СВ 5 20 км н/о +20.3 +16.8 80 +23 +23 комфорт 1005.9 988.4
09 11.06 СВ 5 20 км н/о +19.5 +16.4 82 +21 +21 комфорт 1006.2 988.6
10 11.06 СВ 5 20 км н/о +19.0 +16.2 84 +20 +20 1006.5 988.9
11 11.06 СВ 4 17 км н/о +18.5 +16.1 86 +19 +19 1006.8 989.1
12 11.06 В 4 20 км н/о +18.3 +16.1 87 +19 +19 1007.4 989.7 +22.4
13 11.06 В 4 18 км н/о +18.3 +15.9 86 +19 +19 1007.2 989.5
14 11.06 В 3 20 км н/о +18.1 +16.1 88 +19 +19 1007.1 989.4
15 11.06 СВ 3 20 км н/о +17.7 +16.4 92 +18 +18 1006.4 988.7
16 11.06 В 3 18 км н/о +18.1 +16.4 90 +18 +18 1006.1 988.4
17 11.06 СВ 3 20 км н/о +18.9 +16.3 85 +20 +20 1005.5 987.9
18 11.06 СВ 2 20 км н/о +19.4 +16.3 82 +22 +22 комфорт 1005.6 988.0
19 11.06 В 2 5000 м дождь н/о +18.5 +17.9 96 +20 +20 1005.7 988.0
20 11.06 С 3 8000 м дождь н/о +18.3 +18.0 98 +19 +19 1005.9 988.2
21 11.06 СВ 3 2900 м слаб. дождь н/о +17.9 +17.9 100 +18 +18 1007.1 989.4
22 11.06 СВ 5 5000 м слаб. дождь н/о +18.2 +18.2 100 +18 +18 1006.9 989.2
23 11.06 В 4 10 км слаб. дождь н/о +18.6 +18.6 100 +20 +20 1006.9 989.2
00 12.06 В 5 7000 м слаб. дождь н/о +18.7 +18.4 98 +20 +20 1007.1 989.4 +17.5 27
01 12.06 В 4 16 км в посл. час дождь н/о +19.4 +18.8 96 +22 +22 комфорт 1006.9 989.3
02 12.06 СВ 4 20 км слаб. дождь н/о +20.1 +19.3 95 +24 +24 комфорт 1007.1 989.5
03 12.06 СВ 3 20 км в посл. час дождь н/о +20.8 +19.1 90 +26 +26 душно 1006.4 988.9
04 12.06 В 5 20 км н/о +20.6 +18.2 86 +24 +24 комфорт 1006.5 989.0
05 12.06 СВ 3 20 км н/о +20.6 +18.6 88 +25 +25 комфорт 1006.4 988.9
06 12.06 В 4 н/о н/о +20.3 +19.0 92 +24 +24 комфорт 1006.8 989.2
07 12.06 СВ 3 18 км в посл. час дождь н/о +19.5 +18.5 94 +22 +22 комфорт 1006.9 989.3
08 12.06 СВ 5 20 км н/о +19.3 +18.0 92 +21 +21 комфорт 1006.9 989.3
09 12.06 СВ 5 20 км {дождь, осадки} н/о +19.2 +18.2 94 +21 +21 комфорт 1007.7 990.0
10 12.06 СВ 6 11 км слаб. дождь н/о +18.4 +18.4 100 +19 +19 1008.2 990.5
11 12.06 СВ 6 13 км слаб. дождь н/о +17.9 +17.9 100 +17 +17 1009.1 991.3
12 12.06 В 5 13 км в посл. час дождь н/о +18.3 +18.3 100 +18 +18 1009.6 991.9 +22.3 4
13 12.06 СВ 5 20 км н/о +18.4 +17.9 97 +19 +19 1009.9 992.2
14 12.06 СВ 4 20 км н/о +18.6 +17.6 94 +19 +19 1009.9 992.2
15 12.06 СВ 5 20 км н/о +18.9 +17.9 94 +20 +20 1010.0 992.3
16 12.06 СВ 5 20 км н/о +19.1 +17.8 92 +21 +21 комфорт 1009.9 992.2
17 12.06 В 5 18 км н/о +19.1 +17.6 91 +21 +21 комфорт 1009.8 992.1
18 12.06 В 5 20 км н/о +18.9 +17.2 90 +20 +20 1010.0 992.3
19 12.06 СВ 5 20 км н/о +19.0 +17.0 88 +20 +20 1010.1 992.4
20 12.06 В 6 20 км н/о +19.4 +17.2 87 +21 +21 комфорт 1010.7 993.0
21 12.06 В 5 20 км н/о +19.8 +17.4 86 +22 +22 комфорт 1011.4 993.7
22 12.06 СВ 5 20 км н/о +20.9 +17.5 81 +25 +25 комфорт 1011.8 994.2
23 12.06 СВ 6 20 км н/о +21.1 +16.7 76 +25 +25 комфорт 1012.3 994.7
00 13.06 СВ 6 20 км н/о +22.3 +17.0 72 +27 +27 душно 1012.6 995.1 +18.3
01 13.06 СВ 6 20 км н/о +22.5 +17.0 71 +27 +27 душно 1012.7 995.2
02 13.06 СВ 6 20 км н/о +23.2 +17.2 69 +28 +28 душно 1012.7 995.2
03 13.06 СВ 5 20 км н/о +22.9 +16.7 68 +28 +28 душно 1012.6 995.1
04 13.06 В 5 20 км н/о +22.8 +17.3 71 +28 +28 душно 1012.6 995.1
05 13.06 В 5 20 км н/о +22.7 +17.2 71 +28 +28 душно 1012.4 994.9
06 13.06 В 4 20 км н/о +22.7 +17.6 73 +28 +28 душно 1012.6 995.1
07 13.06 В 3 20 км н/о +22.6 +17.3 72 +27 +27 душно 1012.2 994.7
08 13.06 В 3 20 км н/о +21.6 +17.6 78 +26 +26 душно 1012.8 995.2
09 13.06 ЮВ 5 20 км н/о +21.3 +17.3 78 +25 +25 комфорт 1013.1 995.5
10 13.06 ЮВ 4 20 км н/о +20.1 +17.3 84 +23 +23 комфорт 1013.9 996.2
11 13.06 З 1 20 км н/о +19.3 +17.5 89 +22 +22 комфорт 1014.5 996.7
12 13.06 ЮВ 5 20 км н/о +19.6 +17.6 88 +22 +22 комфорт 1014.6 996.9 +23.8
13 13.06 ЮВ 3 20 км н/о +19.3 +17.6 90 +22 +22 комфорт 1014.6 996.8
14 13.06 ЮВ 5 20 км н/о +19.1 +17.8 92 +21 +21 комфорт 1014.1 996.3
15 13.06 ЮВ 3 20 км н/о +19.2 +17.9 92 +21 +21 комфорт 1013.8 996.0
16 13.06 ЮВ 3 20 км в посл. час дождь н/о +19.1 +18.1 94 +21 +21 комфорт 1013.7 995.9
17 13.06 ЮВ 4 19 км н/о +18.8 +17.8 94 +20 +20 1013.6 995.8
18 13.06 С 2 20 км {дождь} н/о +18.6 +17.8 95 +20 +20 1013.7 995.9 0.0
19 13.06 В 1 20 км н/о +19.0 +17.9 93 +22 +22 комфорт 1013.8 996.0
20 13.06 В 4 20 км н/о +19.5 +17.6 89 +22 +22 комфорт 1013.8 996.1
21 13.06 В 6 20 км н/о +21.0 +18.0 83 +25 +25 комфорт 1013.7 996.1
22 13.06 В 6 20 км н/о +21.6 +17.6 78 +26 +26 душно 1013.9 996.3
23 13.06 В 7 20 км н/о +21.8 +18.0 79 +26 +26 душно 1013.7 996.1
00 14.06 В 8 20 км н/о +22.0 +17.2 74 +26 +26 душно 1013.7 996.1 +18.6 0.0
01 14.06 В 9 20 км н/о +22.0 +17.6 76 +27 +27 душно 1013.6 996.0
02 14.06 0 20 км н/о +22.2 +17.4 74 1013.2 995.7
03 14.06 В 7 20 км н/о +22.4 +16.9 71 +27 +27 душно 1012.6 995.1
04 14.06 В 5 20 км н/о +22.4 +17.3 73 +27 +27 душно 1011.8 994.3
05 14.06 В 7 19 км н/о +21.6 +16.4 72 +25 +25 комфорт 1011.7 994.1
06 14.06 В 5 20 км н/о +22.1 +16.6 71 +26 +26 душно 1011.4 993.9
07 14.06 В 4 17 км н/о +21.4 +17.0 76 +25 +25 комфорт 1011.4 993.8
08 14.06 В 3 16 км слаб. дождь н/о +21.2 +17.0 77 +25 +25 комфорт 1010.8 993.2
09 14.06 В 4 14 км в посл. час дождь н/о +21.0 +17.0 78 +25 +25 комфорт 1010.5 992.9
10 14.06 В 5 14 км н/о +21.0 +17.0 78 +25 +25 комфорт 1010.9 993.3
11 14.06 В 6 16 км слаб. дождь н/о +20.9 +16.7 77 +24 +24 комфорт 1010.9 993.3
12 14.06 В 6 15 км слаб. дождь н/о +20.8 +17.2 80 +24 +24 комфорт 1010.8 993.2 +23.3 0.0
13 14.06 В 4 10 км слаб. дождь н/о +19.9 +17.5 86 +23 +23 комфорт 1010.2 992.6
14 14.06 В 9 8000 м слаб. дождь н/о +18.9 +17.9 94 +19 +19 1008.5 990.8
15 14.06 В 6 8000 м слаб. дождь н/о +18.6 +16.9 90 +19 +19 1007.5 989.8
16 14.06 В 10 4700 м слаб. дождь н/о +17.8 +16.3 91 +17 +17 1005.9 988.2
17 14.06 В 12 6000 м слаб. дождь н/о +18.3 +17.3 94 +17 +17 1003.9 986.3
18 14.06 В 13 5000 м дождь н/о +19.0 +18.7 98 +19 +19 1002.5 984.9 13
19 14.06 В 16 5000 м дождь н/о +19.3 +18.7 96 +20 +20 1000.8 983.3
20 14.06 В 10 4400 м дождь н/о +20.0 +19.4 96 +23 +23 комфорт 1000.6 983.1
21 14.06 ЮЗ 5 5000 м слаб. дождь н/о +20.9 +20.7 99 +26 +26 душно 1000.2 982.8
22 14.06 Ю 10 5000 м слаб. дождь н/о +21.9 +21.9 100 +29 +29 очень
душно
999.5 982.2
23 14.06 Ю 6 6000 м в посл. час дождь н/о +22.9 +22.9 100 +32 +32 очень
душно
998.9 981.7
00 15.06 Ю 7 3600 м слаб. дождь н/о +23.6 +23.6 100 +32 +32 очень
душно
998.4 981.2 +17.3 43
01 15.06 Ю 8 1600 м дождь н/о +23.3 +23.3 100 +33 +33 очень
душно
998.1 980.9
02 15.06 Ю 6 600 м слаб. дождь н/о +23.6 +23.6 100 +32 +32 очень
душно
997.8 980.6
03 15.06 Ю 7 1200 м слаб. дождь н/о +23.5 +23.5 100 +32 +32 очень
душно
996.9 979.7
04 15.06 Ю 7 4000 м слаб. дождь н/о +23.7 +23.7 100 +32 +32 очень
душно
996.8 979.6
05 15.06 Ю 6 300 м сильн. дождь н/о +23.5 +23.5 100 +32 +32 очень
душно
996.4 979.2
06 15.06 Ю 6 3300 м слаб. дождь н/о +23.7 +23.7 100 +32 +32 очень
душно
995.6 978.5 28
07 15.06 Ю 8 5000 м слаб. дождь н/о +23.5 +23.5 100 +32 +32 очень
душно
994.9 977.8
08 15.06 Ю 7 3300 м слаб. дождь н/о +23.5 +23.5 100 +32 +32 очень
душно
994.3 977.2
09 15.06 ЮЗ 6 3100 м слаб. дождь н/о +23.4 +23.4 100 +33 +33 очень
душно
994.6 977.5
10 15.06 ЮЗ 6 5000 м дымка н/о +23.3 +23.3 100 +33 +33 очень
душно
994.8 977.6
11 15.06 ЮЗ 4 3800 м дымка н/о +23.2 +23.2 100 +33 +33 очень
душно
995.1 977.9
12 15.06 ЮЗ 6 8000 м дымка {дождь} н/о +22.8 +22.3 97 +31 +31 очень
душно
995.6 978.4 +23.8 32
13 15.06 ЮЗ 4 4300 м слаб. дождь н/о +22.7 +22.5 99 +31 +31 очень
душно
995.3 978.1
14 15.06 ЮЗ 6 5000 м в посл. час дождь н/о +22.9 +22.9 100 +32 +32 очень
душно
994.3 977.1
15 15.06 ЮЗ 7 7000 м дымка {дождь} н/о +22.9 +22.2 96 +31 +31 очень
душно
994.0 976.8
16 15.06 ЮЗ 9 8000 м дымка н/о +22.7 +21.0 90 +30 +30 очень
душно
993.1 975.9
17 15.06 З 9 13 км в посл. час дождь н/о +22.1 +20.0 88 +28 +28 душно 993.6 976.4
18 15.06 З 8 11 км {дождь} н/о +22.3 +20.4 89 +29 +29 очень
душно
994.3 977.1 0.5
19 15.06 З 9 10 км слаб. дождь н/о +21.9 +20.4 91 +28 +28 душно 994.9 977.7
20 15.06 З 9 12 км в посл. час дождь н/о +22.0 +19.2 84 +27 +27 душно 995.9 978.6
21 15.06 З 8 11 км {дождь} н/о +22.4 +19.8 85 +28 +28 душно 996.3 979.1
22 15.06 З 8 15 км н/о +22.7 +19.5 82 +29 +29 очень
душно
997.0 979.8
23 15.06 З 8 13 км н/о +23.1 +20.1 83 +30 +30 очень
душно
997.3 980.1
00 16.06 З 9 16 км {дождь} н/о +24.1 +19.6 76 +29 +29 душно 998.0 980.8 +21.0 0.5
01 16.06 З 9 15 км н/о +22.9 +19.3 80 +29 +29 очень
душно
998.5 981.3
02 16.06 З 10 16 км н/о +24.3 +18.5 70 +29 +29 душно 998.9 981.7
03 16.06 З 9 15 км н/о +23.8 +17.6 68 +28 +28 душно 999.1 981.9
04 16.06 З 10 19 км н/о +23.9 +19.0 74 +29 +29 душно 999.9 982.7
05 16.06 З 9 17 км н/о +24.4 +19.7 75 +30 +30 очень
душно
1000.3 983.1
06 16.06 З 9 16 км н/о +23.3 +18.8 76 +30 +30 очень
душно
1000.7 983.4
07 16.06 З 9 14 км н/о +23.0 +19.2 79 +29 +29 очень
душно
1001.2 983.9
08 16.06 З 8 16 км н/о +22.8 +18.6 77 +29 +29 очень
душно
1001.8 984.5
09 16.06 З 7 16 км н/о +22.6 +18.0 75 +28 +28 душно 1002.3 985.0
10 16.06 З 8 16 км н/о +22.1 +18.3 79 +27 +27 душно 1003.2 985.8
11 16.06 З 8 17 км н/о +22.2 +18.2 78 +27 +27 душно 1003.8 986.4
12 16.06 З 8 17 км н/о +22.3 +18.1 77 +27 +27 душно 1004.6 987.2 +24.8
13 16.06 З 7 18 км н/о +22.3 +18.7 80 +28 +28 душно 1004.9 987.5
14 16.06 З 6 17 км н/о +21.9 +18.3 80 +27 +27 душно 1005.3 987.9
15 16.06 З 5 20 км н/о +21.7 +17.5 77 +26 +26 душно 1005.5 988.1
16 16.06 З 6 20 км н/о +21.2 +16.4 74 +25 +25 комфорт 1005.7 988.2
17 16.06 З 6 17 км н/о +21.1 +16.9 77 +25 +25 комфорт 1005.7 988.2
18 16.06 З 7 19 км н/о +20.8 +16.2 75 +24 +24 комфорт 1006.3 988.8
19 16.06 З 7 20 км н/о +20.7 +16.3 76 +24 +24 комфорт 1006.9 989.4
20 16.06 З 6 20 км н/о +20.6 +15.4 72 +23 +23 комфорт 1007.4 989.8
21 16.06 З 7 20 км н/о +21.1 +16.1 73 +24 +24 комфорт 1008.5 991.0
22 16.06 З 7 20 км н/о +21.6 +16.6 73 +25 +25 комфорт 1009.3 991.8
23 16.06 З 7 19 км н/о +22.4 +16.7 70 +27 +27 душно 1009.7 992.2
00 17.06 З 7 20 км н/о +22.9 +16.5 67 +28 +28 душно 1009.5 992.1 +20.5

 

Местоположение метеостанции Хатидзёдзима (Япония): широта 33.12 долгота 139.78 высота над уровнем моря 80 м.

В архиве по умолчанию представлена погода на Хатидзёдзиме за последнюю неделю. Архивные данные за месяц целиком и за предыдущие месяцы, начиная с января 2011 года, Вы можете получить, выбрав интересующий диапазон дат из раскрывающегося списка и нажав кнопку "Ввод!".


*Определитесь, кто Вы:
робот инопланетянин человек

Внимание! Время в таблицах - всемирное. Для получения местного времени необходимо прибавить поправку, которая равна 9 ч.

Смотрите также архив погоды в соседних городах и на ближайших метеорологических станциях:

Погода на Миякедзиме (Япония) (114 км)
Погода на Осиме (Япония) (185 км)
Погода в Иродзаки (Япония) (186 км)
Погода в Татеяме (Япония) (207 км)
Погода в Омаэдзаки (Япония) (219 км)
Погода в Аджиро (Япония) (224 км)
Погода в Кацууре (Япония) (231 км)
Погода в Мисиме (Япония) (236 км)
Погода в Сидзуоке (Япония) (243 км)
Погода в Иокогаме (Япония) (257 км)

Пояснения к столбцам:

Ветер - указаны скорость ветра в м/с - средняя за 10 мин, порывы в срок и между сроками (в фигурных скобках) и направление, откуда дует ветер: С - северный, СВ - северо-восточный, В - восточный, ЮВ - юго-восточный, Ю - южный, ЮЗ - юго-западный, З - западный, СЗ - северо-западный.
Видимость - горизонтальная дальность видимости в метрах или километрах. При видимости от 1 до 10 км при отсутствии осадков обычно наблюдается дымка, при ухудшении видимости до 1 км и менее - туман. В сухую погоду видимость может ухудшаться дымом, пылью или мглою.
Явления - указаны атмосферные явления, наблюдавшиеся в срок или в последний час перед сроком; фигурными скобками обозначены явления, наблюдавшиеся между сроками (за 1-3 часа до срока); квадратными скобками обозначены град или гололедные отложения с указанием их диаметра в мм.
Облачность - указаны через наклонную черту общая и нижняя облачность в баллах и высота нижней границы облаков в метрах; квадратными скобками обозначены формы облаков: Ci - перистые, Cs - перисто-слоистые, Cc - перисто-кучевые, Ac - высококучевые, As - высокослоистые, Sc - слоисто-кучевые, Ns - слоисто-дождевые, Cu - кучевые, Cb - кучево-дождевые. Подробнее классификацию облаков см. в Атласе облаков (PDF).
T - Температура воздуха - температура, измеренная на высоте 2 м над землей.
Td - Температура точки росы - температура, при понижении до которой содержащийся в воздухе водяной пар достигнет насыщения.
f - Относительная влажность воздуха - влажноcть воздуха, измеренная на высоте 2 м над землей.
Te - Эффективная температура - температура, которую ощущает одетый по сезону человек в тени. Характеристика душности погоды. При расчете учитывается влияние влажности воздуха и скорости ветра на теплоощущения человека.
Tes - Эффективная температура на солнце - температура, которую ощущает человек, с поправкой на солнечный нагрев. Характеристика знойности погоды. Зависит от высоты солнца над горизонтом, облачности и скорости ветра. Ночью, в пасмурную погоду, а также при ветре 12 м/с и более поправка равна нулю.
P - Атмосферное давление - приведенное к уровню моря атмосферное давление.
Po - Атмосферное давление - измеренное на уровне метеостанции атмосферное давление.
Tmin - Минимальная температура - минимум температуры воздуха на высоте 2 м над землей.
Tmax - Максимальная температура - максимум температуры воздуха на высоте 2 м над землей.
R - Количество осадков - Количество выпавших осадков за период времени, мм. При наведении курсора мыши на число - период времени, за который выпало указанное количество осадков.
R24 - Количество осадков - Количество выпавших осадков за 24 часа, мм.
S - Снежный покров - Высота снежного покрова, см. При наведении курсора мыши на число - состояние снежного покрова и степень покрытия местности в баллах.